Regional Weather Roundup
Issued by NWS Cleveland, OH

Home | Current Version | Previous Version | Graphics & Text | Print | Product List | Glossary On
Versions: 1 2 3 4 5 6 7 8 9 10 11 12 13 14 15 16 17 18 19 20 21 22 23 24 25 26 27 28 29 30 31 32 33 34 35 36 37 38 39 40 41 42 43 44 45 46 47 48 49 50
890
ASUS41 KCLE 122000
RWRCLE
OHIO REGIONAL WEATHER ROUNDUP
NATIONAL WEATHER SERVICE WILMINGTON, OH
300 PM EST FRI FEB 12 2016

NOTE: "FAIR" INDICATES FEW OR NO CLOUDS BELOW 12,000 FEET WITH NO
SIGNIFICANT WEATHER AND/OR OBSTRUCTIONS TO VISIBILITY.

OHZ001>008-015>018-024>027-034-035-043-044-122100-
   NORTHWEST OHIO

CITY           SKY/WX    TMP DP  RH WIND       PRES   REMARKS
DEFIANCE       FLURRIES  25  14  63 W9G21     30.01F WCI  15
FINDLAY        CLOUDY    24  13  62 W21       29.99F WCI   9
TOLEDO EXPRESS CLOUDY    23  14  68 W25G31    29.97F WCI   7
TOLEDO EXEC    CLOUDY    25  14  63 W20G26    29.98F WCI  11
LIMA           CLOUDY    23  14  68 W21G29    30.00F WCI   8
$$

OHZ009>014-019>023-028>033-038-089-122100-
   NORTHEAST OHIO

CITY           SKY/WX    TMP DP  RH WIND       PRES   REMARKS
CLE-HOPKINS    CLOUDY    23   8  52 SW17G24   29.98F WCI   9
CLE-LAKEFRONT  CLOUDY    24  10  55 SW23      29.95F WCI   9
CUY CO. ARPT   CLOUDY    23  10  58 SW14G25   29.95F WCI  11
LORAIN-ELYRIA  CLOUDY    22   7  52 W20G25    29.96F WCI   7
ASHTABULA      LGT SNOW  20  13  74 SW12      29.94F WCI   8
AKRON-CANTON   LGT SNOW  20  10  65 SW13      29.95F WCI   7
WOOSTER        NOT AVBL
MANSFIELD      CLOUDY    21   7  54 W13G24    29.95F WCI   9
YOUNGSTOWN     LGT SNOW  20   8  60 SW17G24   29.94F WCI   5
$$

OHZ042-051>053-060>062-070>072-077>081-122100-
  SOUTHWEST OHIO

CITY           SKY/WX    TMP DP  RH WIND       PRES   REMARKS
CINC-COVINGTON CLOUDY    27  17  66 W18G25    30.08F WCI  14
CINC-LUNKEN    CLOUDY    29  18  63 W15G22    30.11F WCI  18
HAMILTON       CLOUDY    29  15  56 W10       30.10F WCI  20
DAYTON         NOT AVBL
WRIGHT-PAT AFB PTSUNNY   26  11  53 SW18      30.04F WCI  13
DAYTON GENERAL CLOUDY    26  13  57 W14       30.04F WCI  14
WILMINGTON     FLURRIES  25  16  68 W15       30.03F WCI  13
$$

OHZ036-037-039>041-045>050-054>059-063>069-073>076-082>088-122100-
  CENTRAL AND SOUTHEAST OHIO

CITY           SKY/WX    TMP DP  RH WIND       PRES   REMARKS
COLUMBUS       CLOUDY    23   9  55 W13       30.03F WCI  11
OSU AIRPORT    CLOUDY    24  12  60 W14G23    30.01F WCI  12
BOLTON FIELD   CLOUDY    25  12  58 W14       30.03F WCI  13
RICKENBACK AFB NOT AVBL
NEWARK         LGT SNOW  23  13  65 SW7       30.02F WCI  15
MARION         CLOUDY    24   8  50 W16G24    29.99F WCI  11
LANCASTER      LGT SNOW  23  16  74 SW13      30.04F WCI  11
ZANESVILLE     CLOUDY    26   6  42 W15       30.01F WCI  14
NEW PHILLY     LGT SNOW  22  10  60 SW7       30.01F WCI  13
$$




USA.gov is the U.S. government's official web portal to all federal, state and local government web resources and services.